Location: Leeds
(37.2390°N, 113.3580°W)
Time: 02:27:48
(UTC-06:00)

Daily predictions for brighter satellites

Satellite Brightness Start Highest point End
(mag) Time Altitude Azimuth Time Altitude Azimuth Time Altitude Azimuth
Meteor 2-8 Rocket 4.3 00:13:15 73° SW 00:13:46 79° W 00:19:58 10° N
Lacrosse 5 rocket 3.6 00:11:26 10° NNW 00:15:04 22° NE 00:15:49 21° NE
Cosmos 2322 Rocket 2.8 00:10:29 10° N 00:15:57 45° ENE 00:16:00 45° ENE
SME Rocket 4.1 00:20:39 49° NE 00:20:39 49° NE 00:24:06 10° N
USA 229 DEB 3.8 00:22:55 10° NW 00:30:02 67° WSW 00:30:32 65° SW
USA 229 3.8 00:23:00 10° NW 00:30:08 67° WSW 00:30:38 65° SW
H-2A R/B 4.2 00:30:29 14° W 00:31:02 14° W 00:33:33 10° WNW
CZ-4B R/B 4.5 00:30:47 10° N 00:35:32 40° WNW 00:35:55 39° W
CZ-2C R/B 3.4 00:30:25 10° NNE 00:34:42 44° ENE 00:34:42 44° ENE
Cosmos 494 Rocket 4.4 00:37:10 58° N 00:37:10 58° N 00:41:26 10° NNE
NOSS 3-1 (A) 4.5 00:29:19 10° NNW 00:36:50 55° NE 00:39:17 42° ESE
Cosmos 1934 Rocket 3.9 00:31:27 10° N 00:37:46 83° ENE 00:37:46 83° ENE
H-2A R/B 4.4 00:46:15 16° W 00:46:15 16° W 00:48:24 10° NW
ATLAS CENTAUR R/B 3.7 00:45:50 10° NNW 00:47:05 20° NNW 00:47:05 20° NNW
SL-16 R/B 2.7 01:02:46 10° NNW 01:07:17 54° NW 01:07:17 54° NW
CZ-2C R/B 3.6 01:20:17 57° NW 01:20:17 57° NW 01:24:54 10° NNW
ALOS 2 4.2 01:21:51 32° NNW 01:21:51 32° NNW 01:24:16 10° NNW
Cosmos 1727 Rocket 4.2 01:28:15 63° WNW 01:28:15 63° WNW 01:34:09 10° N
SeaSat 1 3.4 01:33:27 42° NW 01:33:27 42° NW 01:36:46 10° NNW
Cosmos 2322 4.1 01:28:19 10° NNW 01:33:14 59° NNE 01:33:14 59° NNE
Lacrosse 5 3.4 01:35:59 28° NW 01:36:46 30° NW 01:41:14 10° NNE
USA 267 4.1 01:33:11 10° NE 01:39:21 46° NW 01:42:34 27° W
Cosmos 2219 3.9 01:46:23 47° ENE 01:46:23 47° ENE 01:50:38 10° NNE
Cosmos 2360 Rocket 2.6 01:41:53 10° NNW 01:46:21 57° NW 01:46:21 57° NW
COSMOS 2428 3.3 01:46:18 10° NNW 01:51:53 49° ENE 01:51:54 49° ENE
Lacrosse 5 rocket 3.8 01:50:06 10° NW 01:51:29 19° NW 01:51:29 19° NW
Cosmos 2173 Rocket 3.9 01:48:56 10° N 01:54:32 77° N 01:54:32 77° N
Cosmos 2322 Rocket 4.0 01:55:16 10° NW 01:57:49 20° WNW 01:57:49 20° WNW
Cosmos 2221 4.2 01:57:34 10° N 01:59:51 31° NNW 01:59:51 31° NNW
USA 234 3.6 02:08:35 29° ESE 02:12:02 60° NE 02:18:26 10° NW
Cosmos 1459 Rocket 4.2 02:10:05 10° NNW 02:15:58 59° WNW 02:15:58 59° WNW
Cosmos 2333 Rocket 3.1 02:18:41 10° N 02:24:05 42° ENE 02:25:16 37° E
Cosmos 2297 Rocket 3.4 02:27:30 32° E 02:27:30 32° E 02:32:05 10° NE
Cosmos 1864 Rocket 4.4 02:21:24 10° N 02:27:43 80° E 02:27:55 79° ESE
ATLAS 2AS CENTAUR R/B 3.2 02:19:56 10° NNW 02:27:55 66° NE 02:31:13 36° SE
Cosmos 2219 Rocket 2.5 02:25:04 10° NNW 02:30:42 59° ENE 02:31:03 58° E
NOSS 3-3 (A) 3.8 02:33:07 89° SE 02:33:07 89° SE 02:39:42 10° NNE
NOSS 3-3 (C) 3.8 02:33:14 88° ESE 02:33:14 88° ESE 02:39:48 10° NNE
Cosmos 1726 4.3 02:32:12 10° N 02:34:01 26° NNE 02:34:01 26° NNE
Cosmos 1802 Rocket 4.5 02:31:09 10° NNW 02:36:39 47° WNW 02:36:39 47° WNW
Cosmos 2016 Rocket 4.3 02:33:27 10° NNW 02:39:27 55° W 02:39:27 55° W
Cosmos 1328 Rocket 4.5 02:42:07 10° N 02:45:23 47° NNE 02:45:23 47° NNE
NPP 4.5 02:41:37 10° NNE 02:46:39 39° E 02:46:52 39° ESE
Cosmos 1151 Rocket 4.2 02:44:20 10° N 02:47:57 38° ENE 02:47:57 38° ENE
Cosmos 1300 4.5 02:44:45 10° N 02:46:53 31° N 02:46:53 31° N
SL-16 R/B 4.4 02:44:06 10° ESE 02:48:51 24° ENE 02:53:38 10° NNE
Cosmos 2237 Rocket 2.9 02:45:08 10° N 02:50:35 48° ENE 02:52:19 36° ESE
SL-16 R/B 4.4 02:47:38 10° N 02:51:58 22° NE 02:56:15 10° ESE
Meteor 2-10 4.1 02:51:09 10° N 02:56:17 71° E 02:56:17 71° E
Cosmos 1954 Rocket 4.0 02:58:07 74° NNW 02:58:07 74° NNW 03:03:03 10° NNE
Cosmos 407 Rocket 4.3 02:58:47 40° WNW 02:58:47 40° WNW 03:03:19 10° N
Helios 1A Rocket 3.9 02:55:56 10° N 02:58:56 45° N 02:58:56 45° N
H-2A R/B 4.3 02:57:35 10° NNW 03:00:16 25° NW 03:00:16 25° NW
ATLAS 3B CENTAUR R/B 4.1 02:39:27 10° WSW 03:02:42 57° S 03:10:54 10° ESE
Resurs 1-4 Rocket 3.8 02:59:02 10° NE 03:03:16 24° E 03:04:43 21° ESE
Cosmos 2228 Rocket 3.8 03:00:09 10° N 03:03:32 49° NNW 03:03:32 49° NNW
Cosmos 2227 Rocket 2.0 03:04:40 85° SSW 03:04:50 90° NNW 03:10:32 10° NNE
ARIANE 5 R/B 4.2 03:03:31 10° NE 03:07:27 22° E 03:08:48 20° ESE
Cosmos 2058 3.7 03:08:23 49° NE 03:08:23 49° NE 03:11:36 10° NNE
Cosmos 1447 Rocket 4.4 03:10:40 64° WSW 03:11:18 69° W 03:17:35 10° N
Cosmos 2233 Rocket 4.0 03:14:13 10° NNW 03:20:27 62° W 03:21:09 58° WSW
CZ-2D R/B 3.1 03:20:20 10° NNE 03:25:09 37° E 03:26:43 30° SE
IRS-P3 Rocket 4.4 03:22:47 10° NNE 03:28:02 85° WNW 03:28:34 72° SSW
Cosmos 1455 3.1 03:27:17 10° N 03:31:02 44° E 03:31:12 44° E
Cosmos 1500 Rocket 4.4 03:31:56 39° NW 03:31:56 39° NW 03:35:30 10° N
Cosmos 1072 Rocket 4.4 03:28:15 10° N 03:34:24 81° E 03:36:44 41° SSE
Transit 2A Rocket 4.4 03:35:50 78° E 03:35:50 78° E 03:40:01 10° NNE
COSMOS 2428 4.5 03:31:33 10° NW 03:33:52 18° WNW 03:33:52 18° WNW
NOSS 0 Rocket 4.0 03:29:56 10° NNW 03:35:56 53° WSW 03:36:22 52° WSW
Cosmos 2082 3.8 03:35:30 52° W 03:36:20 57° WNW 03:41:53 10° NNE
SL-08 R/B 3.3 03:36:00 70° S 03:36:34 84° WSW 03:41:34 10° NNW
Lacrosse 4 Rocket 2.1 03:39:11 42° ESE 03:39:14 42° ESE 03:43:12 10° NE
IRS-1C 4.0 03:34:47 10° NNE 03:40:09 88° ESE 03:41:16 58° S
Cosmos 1626 2.9 03:44:25 45° NNW 03:44:25 45° NNW 03:47:18 10° N
AQUA 3.7 03:39:34 10° N 03:44:19 70° WNW 03:44:46 65° WSW
Cosmos 1805 Rocket 3.5 03:44:58 67° SSE 03:45:28 76° E 03:49:54 10° N
Spot 4 Rocket 4.1 03:41:30 10° NNE 03:46:39 69° ESE 03:48:05 46° SSE
Cosmos 2208 Rocket 3.9 03:46:42 10° NNW 03:51:56 87° ENE 03:54:13 35° SSE
Cosmos 1464 Rocket 3.8 03:48:20 10° N 03:54:29 77° W 03:56:56 39° S
USA 234 3.8 03:55:51 34° WSW 03:55:51 34° WSW 04:01:04 10° WNW
DELTA 2 R/B (1) 3.5 03:55:50 38° W 03:58:04 81° NNW 04:03:39 10° ENE
Cosmos 1869 4.0 03:55:10 10° N 03:59:06 50° E 04:00:43 30° SE
CZ-3A R/B 4.5 03:57:53 10° N 04:00:11 16° NE 04:04:26 10° E
Cosmos 1241 Rocket 4.4 03:53:52 10° NNW 04:00:19 81° WSW 04:06:35 10° SSE
IRS-1D 3.5 03:56:37 10° NNE 04:01:59 87° ESE 04:03:55 41° S
Cosmos 1703 4.4 04:03:03 31° WNW 04:03:03 31° WNW 04:06:09 10° NNW
ADEOS Rocket 3.5 03:55:43 10° N 04:03:18 80° WNW 04:07:32 31° SSW
Aureole 2 Rocket 4.5 03:59:50 10° NW 04:01:49 22° WNW 04:01:49 22° WNW
Cosmos 2333 Rocket 3.5 04:03:33 10° NW 04:07:13 23° W 04:07:13 23° W
BREEZE-M R/B 4.2 04:06:58 32° SSW 04:10:15 55° SE 04:14:33 10° ENE
Cosmos 2297 Rocket 3.2 04:09:18 27° W 04:11:05 32° WNW 04:16:07 10° N
Sich 1 2.9 04:11:32 49° SSW 04:12:42 82° W 04:17:05 10° N
Cosmos 1633 Rocket 3.0 04:11:33 43° S 04:12:58 83° E 04:17:20 10° N
Cosmos 2219 Rocket 4.0 04:10:34 10° WNW 04:12:44 16° W 04:12:44 16° W
ATLAS 2AS CENTAUR R/B 3.8 04:12:11 10° NW 04:18:12 25° WSW 04:18:33 25° WSW
NOSS 3-4 (A) 4.1 04:12:32 10° NNW 04:19:39 74° ENE 04:27:13 10° SE
NOSS 3-4 (C) 4.1 04:12:39 10° NNW 04:19:45 74° ENE 04:27:19 10° SE
Cosmos 332 Rocket 4.4 04:21:43 10° N 04:26:29 56° ENE 04:31:15 10° SSE
UNKNOWN OBJECT B 2.9 04:22:33 10° NNE 04:26:34 75° ESE 04:28:17 32° S
MOS 1 Rocket 3.8 04:25:18 10° NNE 04:30:31 70° E 04:34:34 18° S
SL-16 R/B 2.7 04:28:29 24° SSW 04:32:04 51° W 04:38:05 10° NNW
ATLAS 5 CENTAUR R/B 3.1 04:31:07 16° S 04:34:07 32° ESE 04:38:29 10° NE
Cosmos 2237 Rocket 3.5 04:30:10 10° NW 04:34:05 21° W 04:34:05 21° W
SL-16 R/B 2.3 04:30:53 10° NNW 04:36:21 51° WSW 04:41:04 14° S
ADEOS 4.0 04:33:07 10° N 04:38:06 47° WNW 04:40:42 26° SW
Cosmos 2346 Rocket 4.5 04:35:17 18° S 04:40:08 85° W 04:46:24 10° N
Cosmos 2227 4.2 04:38:29 24° SSW 04:42:03 82° WNW 04:47:51 10° NNE
Resurs 1-4 Rocket 2.8 04:38:16 10° N 04:43:10 38° WNW 04:45:48 23° WSW
ARIANE 5 R/B 3.2 04:42:00 10° N 04:46:39 37° WNW 04:49:08 23° WSW
ADEOS II 3.4 04:44:37 10° NNE 04:49:29 37° E 04:54:18 10° SSE
Cosmos 2227 Rocket 4.3 04:47:07 10° WNW 04:49:41 13° NW 04:52:15 10° NNW
USA 161 0.3 05:00:37 44° S 05:01:04 72° WSW 05:03:00 10° NNW
MOZ.5/SAFIR/RUBIN 5/SL-8 3.9 04:57:11 10° S 05:01:49 53° W 05:06:31 10° NNW
Cosmos 2242 Rocket 3.9 04:58:12 10° NNW 05:02:32 48° W 05:06:34 12° SSW
Cosmos 1892 3.4 05:00:36 10° S 05:04:17 54° E 05:08:02 10° NNE
Cosmos 1933 3.3 05:00:38 10° N 05:04:44 73° W 05:08:48 10° S
CZ-2D R/B 3.4 05:00:51 10° NNW 05:05:00 25° WNW 05:08:03 15° WSW
OAO 3 Rocket 3.7 05:02:58 19° SW 05:06:12 46° SSE 05:10:55 10° E
Cosmos 1455 4.5 05:05:58 10° W 05:06:10 10° W 05:06:10 10° W
Cosmos 1867 4.0 05:01:22 12° SSW 05:06:18 60° ESE 05:11:41 10° NE
Cosmos 2263 Rocket 2.8 05:02:42 10° S 05:08:05 54° ESE 05:13:31 10° NNE
GPS 2-04 Rocket1 4.2 05:10:36 18° SW 05:11:36 19° SSW 05:14:36 10° SSE
Cosmos 1862 Rocket 3.6 05:09:20 10° NNW 05:13:35 58° W 05:17:48 10° S
Cosmos 1486 Rocket 4.5 05:11:42 15° SW 05:15:41 45° WNW 05:20:43 10° N
Meteor 2-10 Rocket 3.4 05:11:20 10° NNW 05:16:19 72° W 05:21:22 10° S
Cosmos 1933 Rocket 4.1 05:13:14 15° SSW 05:16:41 42° W 05:20:56 10° N
Cosmos 1400 Rocket 2.9 05:14:13 13° SSW 05:17:39 58° W 05:21:34 10° N
Lacrosse 4 Rocket 3.4 05:15:31 10° W 05:18:10 16° NW 05:20:51 10° NNW
Meteosat 1 Rocket2 4.2 05:17:30 14° SW 05:19:59 23° S 05:22:59 10° SE
In-Cosmos 22 Rocket 4.2 05:15:17 10° SSW 05:20:30 58° W 05:25:44 10° N
Cosmos 841 Rocket 3.5 05:17:04 10° NNW 05:22:20 71° WSW 05:27:33 10° S
Landsat 4 3.6 05:21:42 10° S 05:25:29 81° WSW 05:29:18 10° NNW
Cosmos 371 Rocket 3.8 05:26:52 10° NW 05:31:20 38° WSW 05:35:45 10° S
Meteor 1-26 Rocket 4.3 05:32:17 10° NNW 05:37:55 62° W 05:43:25 10° S
Cosmos 1703 Rocket 3.5 05:35:16 10° N 05:39:40 84° W 05:44:04 10° S
Cosmos 1825 3.8 05:39:50 10° SSE 05:43:22 37° E 05:46:53 10° NNE
DELTA 2 R/B (1) 3.9 05:39:13 10° W 05:44:46 71° N 05:50:19 10° E
RESURS DK-1 2.9 05:40:42 10° NNW 05:44:50 64° ENE 05:48:57 10° SSE
Cosmos 1408 3.9 05:42:16 10° SSE 05:45:45 42° E 05:49:12 10° NNE
ATLAS 3B CENTAUR R/B 3.6 05:38:00 10° W 05:46:23 25° SW 05:50:30 10° SSE
Okean O Rocket 1.7 05:43:15 10° N 05:47:32 59° WNW 05:51:47 10° SSW
Nadezhda 4 Rocket 4.2 05:41:35 10° S 05:47:49 83° E 05:54:09 10° N
GP-B 3.8 05:46:21 10° NNW 05:50:26 37° W 05:54:30 10° SSW
Cosmos 1763 Rocket 4.4 05:46:58 10° NW 05:51:22 28° W 05:55:42 10° SSW
Cosmos 2285 Rocket 4.2 05:45:37 10° NNW 05:51:39 50° WSW 05:57:41 10° S
